Погода в Благовещенске

Хотите узнать прогноз погоды в Благовещенске? Тогда Вам сюда: Погода в Благовещенске

Поиск расширенной информации на нашем сайте:

Полезная информация:

Новости сайта



02.01.2020
Опубликован Долгосрочный прогноз погоды по городам России и ближнего зарубежья на январь 2020 года.
Карты: Прогноз на январь и февраль 2020 года, Сравнение прогнозируемой аномалии приземной температуры воздуха на январь 2020 года по разным моделям.




Погода в Благовещенске - сегодня

Время (UTC), дата Ветер
(°,м/с) 
Видим.   Явления Облачность Т
(°С)
Тd
(°С)
f(%) Тe
(°С)
Pmin
(гПа)
dP
(гПа)
Po
(мм)
O2
(г/м3)
Тmin Tmax R s Состояние
почвы
21 29.11.20 290 (З) н/о    10/0 средняя, верхняя 
[Ac trans|Ci fib]
-16.4 -19.7 76 -20  1025.6  -0.4  752  324           
00 30.11.20 290 (З) 20000 м    3/0 средняя, верхняя 
[Ac trans|Ci fib]
-15.8 -19.9 71 -21  1026.3  0.7  753  323  -16.4      мокрый или
старый снег
50-90% 
03 30.11.20 310 (СЗ) 20000 м    ясно 
-12.2 -19.6 54 -16  1025.9  0.1  753  319           
06 30.11.20 320 (СЗ) 20000 м    ясно 
-10.5 -20.3 44 -15  1026.4  0.6  753  317           
09 30.11.20 290 (З) н/о    ясно 
-12.9 -19.7 57 -15  1028.3  1.6  754  321           
12 30.11.20 290 (З) н/о    ясно 
-15.2 -19.6 69 -17  1029.5  0.9  755  324    -10.3       
15 30.11.20 290 (З) н/о    ясно 
-14.1 -19.2 65 -18  1029.6  0.2  755  322           
18 30.11.20 290 (З) н/о    ясно 
-13.3 -19 62 -17  1029.9  0.4  756  322           
21 30.11.20 270 (З) н/о    ясно 
-14.2 -19.3 65 -18  1030.2  0.2  756  323           
00 01.12.20 280 (З) 50000 м    ясно 
-13.8 -19.4 63 -17  1030.7  0.5  756  322  -15.5      мокрый или
старый снег
50-90% 
03 01.12.20 290 (З) 20000 м    ясно 
-8.8 -18.9 44 -12  1029.4  -0.8  755  316           
06 01.12.20 270 (З) 20000 м    ясно 
-6.8 -19.4 36 -8  1028  -1.2  755  313           
09 01.12.20 280 (З) н/о    ясно 
-11.1 -18.4 55 -14  1028.2  -0.2  754  318           
12 01.12.20 260 (З) н/о    10/0 верхняя 
[Ci fib]
-13.8 -18.6 67 -14  1028  -0.5  754  321    -6.6       
15 01.12.20 280 (З) н/о    10/0 верхняя 
[Ci fib]
-15.4 -18.8 75 -19  1027.7  -0.4  754  323           
18 01.12.20 тихо ()   н/о    н/о 
-16.7 -19 82 -17  1027.5  -0.3  754  325           
21 01.12.20 290 (З) н/о    ясно 
-18.7 -20.2 88 -21  1026.9  -0.8  753  327           
00 02.12.20 290 (З) 20000 м    4/0 верхняя 
[Ci fib]
-18.5 -20.6 83 -23  1027  0.1  753  327  -19.2      мокрый или
старый снег
50-90% 
03 02.12.20 290 (З) 20000 м    3/0 верхняя 
[Ci fib]
-11.8 -18.2 59 -14  1025.6  -0.8  752  318           
06 02.12.20 280 (З) 20000 м    ясно 
-9.2 -18 49 -11  1024  -1.3  751  315           
09 02.12.20 тихо ()   н/о    ясно 
-12.4 -16.6 71 -12  1024.2  -0.1  751  319           
12 02.12.20 290 (З) н/о    10/0 верхняя 
[Ci]
-13.9 -18.7 67 -16  1023.2  -1.1  751  320    -9.1       
15 02.12.20 300 (СЗ) н/о    10/0 верхняя 
[Cs]
-13 -17.8 67 -15  1022.3  -0.8  750  319           
18 02.12.20 280 (З) н/о    6/0 верхняя 
[Ci fib]
-13.4 -17.7 70 -16  1021.5  -0.7  749  319           
21 02.12.20 280 (З) н/о    8/0 верхняя 
[Ci fib]
-13.4 -17.9 69 -17  1020.7  -0.8  749  319           
Время (UTC), дата Ветер
(°,м/с) 
Видим.   Явления Облачность Т
(°С)
Тd
(°С)
f(%) Тe
(°С)
Pmin
(гПа)
dP
(гПа)
Po
(мм)
O2
(г/м3)
Тmin Tmax R s Состояние
почвы

Для получения пояснительной информации подведите курсор к названию столбца.

ПОГОДА в Благовещенске - архив

Всё, что Вы хотите узнать о погоде в Благовещенске - удобно и подробно!

Выберите нужную дату (начиная с 1 января 2019* года) и нажмите кнопку "Найти".
Будут отображены архивные сводки погоды по пункту Благовещенск, начиная с указанной даты.


Отображать данные в формате CSV (для использования в таблицах Excel)


Внимание! Наш архив погоды предназначен исключительно для личного некоммерческого использования в познавательных целях. Если Вам необходимы официальные справки о состоянии погоды (для производственных, юридических, коммерческих и т.п. целей), обращайтесь в органы Росгидромета.

*Примечание: данная дата относится к архиву по метеостанциям СССР (Россия, СНГ, Балтия).
Архив по метеостанциям Зарубежной Европы и Азии (кроме Китая) хранится 10 дней, по другим регионам земного шара (Китай, Африка, Америка, Австралия, Океания) - 1 день.

Благовещенск - район местоположения метеостанции


Название, широта, долгота, высота метеостанции:
Благовещенск 50.2°ш. 127.6°д. 132 м над ур. моря [Российская Федерация]

Дополнительная информация

В oтличие oт бoльшинства пoгoдных сайтoв мы публикуем пoдрoбную метеoинфoрмацию в детальнoм прoфессиoнальнoм фoрмате.

Характеристики температуры и влажнoсти вoздуха измеряются на высoте 2 м в тени вдали oт зданий и деревьев.
Скoрoсть ветра измеряется на высoте 10 м (на урoвне рoста челoвека скoрoсть ветра ниже в 1.5-2 раза). Если метеoстанция нахoдится в гoрoде или в лесу, тo скoрoсть ветра занижена на 2-4 м/с пo сравнению с oткрытым местoм. Скoрoсть ветра над акватoриями крупных рек и oзёр, а также на вершинах хoлмoв на 2-5 м/с выше, чем в oбычных услoвиях.
Атмoсфернoе давление в разных тoчках местнoсти мoжет значительнo oтличаться oт давления на метеoстанции, в зависимoсти oт услoвий рельефа (при пoдъёме на 10 м давление пoнижается примернo на 1 мм рт.ст.).